Weather in Kotkino

Russia / Nenets Autonomous Okrug     67°01′57″N   51°08′21″E
temp.,
°C
wind,
m/s
gust,
m/s
humid.,
%
clouds,
%
prec.,
mm/h
press.,
hPa
HPBL,
m
1 march, mon
mon100:00−9ssw6109298 0.0 1005180
03:00−6ssw8139499 0.3 1002445
06:00−4ssw81493100 0.9 998608
09:00−4ssw101694100 2.3 993620
12:00−3sw111695100 2.8 988872
15:00+1w101599100 4.8 986618
18:000w91491100 0.1 985569
21:00−4wsw699285 0.1 986119
2 march, tue
tue200:00−2w699381 0.0 985439
03:00−3wsw699491 0.1 985250
06:00−7wsw459698 0.3 98578
09:00−6wsw579495 0.3 986114
12:00−4w579594 0.3 987336
15:00−2nw589496 1.4 988506
18:00−7w4585100 0.1 98856
21:00−11wsw459267 0.1 98840
3 march, wed
wed300:00−11sw459373 0.0 98839
03:00−12s349470 0.0 98828
06:00−10se339699 0.3 98830
09:00−12ene459697 0.5 990132
12:00−13ne569597 0.1 991235
15:00−15n569598 0.4 993244
18:00−19nnw459796 0.1 99380
21:00−19nw459895 0.2 99461
4 march, thu
thu400:00−20nw469898 0.1 99386
03:00−18wnw469797 0.2 99499
06:00−16n359698 0.1 99396
09:00−16ne589599 0.3 993285
12:00−16ne6893100 0.2 994380
15:00−17ne6893100 0.4 995397
18:00−20nne5997100 0.1 996223
21:00−22nne5798100 0.1 997107
5 march, fri
fri500:00−25nne569999 0.0 99874
03:00−27n459998 0.1 99948
06:00−27n459997 0.0 100055
09:00−23nnw469799 0.1 1000269
12:00−21nnw5794100 0.1 1002395
15:00−21nnw5793100 0.1 1003456
18:00−24nw579897 0.1 1004124
21:00−25nw459792 0.1 100669